Sigfox identifier Datetime Temperature Humidity SNR
003AD018 2019-02-20 13:55:45 20.8 22 22.3
003AD018 2019-02-20 13:24:56 20.8 23 22.4
003AD018 2019-02-20 12:54:11 20.8 24 22.5
003AD018 2019-02-20 12:23:22 20.8 24 22.5
003AD018 2019-02-20 11:52:34 20.8 25 22.4
003AD018 2019-02-20 11:21:47 20.8 26 21.5
003AD018 2019-02-20 10:51:00 20.7 26 21.4
003AD018 2019-02-20 10:20:13 20.7 26 21.4
003AD018 2019-02-20 09:49:28 20.6 26 21.4
003AD018 2019-02-20 09:18:39 20.6 26 20.2
003AD018 2019-02-20 08:47:52 20.6 26 20.1
003AD018 2019-02-20 08:17:03 20.6 26 20
003AD018 2019-02-20 07:46:17 20.6 27 19.9
003AD018 2019-02-20 07:15:29 20.6 27 19.7
003AD018 2019-02-20 06:44:42 20.7 27 19.3
003AD018 2019-02-20 06:13:54 20.7 27 19.2
003AD018 2019-02-20 05:43:06 20.7 27 19.1
003AD018 2019-02-20 05:12:19 20.7 27 18.9
003AD018 2019-02-20 04:41:32 20.7 27 18.9
003AD018 2019-02-20 04:10:44 20.7 27 18.5
003AD018 2019-02-20 03:39:57 20.7 27 18.2
003AD018 2019-02-20 03:09:09 20.7 27 18
003AD018 2019-02-20 02:38:21 20.7 27 17.9
003AD018 2019-02-20 02:07:34 20.7 27 17.6
003AD018 2019-02-20 01:36:47 20.9 26 17.6
003AD018 2019-02-20 01:35:37 20.7 27 17.3
003AD018 2019-02-20 01:04:49 20.7 26 16.9
003AD018 2019-02-20 00:34:03 20.7 26 16.7
003AD018 2019-02-20 00:03:16 20.7 26 19.2
003AD018 2019-02-19 23:32:31 20.7 26 19.2
003AD018 2019-02-19 23:01:43 20.7 26 18.9
003AD018 2019-02-19 22:30:55 20.8 26 18.8
003AD018 2019-02-19 22:00:08 20.8 26 18.7
003AD018 2019-02-19 21:29:19 20.8 26 18.9
003AD018 2019-02-19 20:58:30 20.8 26 18.6
003AD018 2019-02-19 20:27:40 20.8 26 18.6
003AD018 2019-02-19 19:56:50 20.8 26 18.5
003AD018 2019-02-19 19:26:01 20.9 26 18.5
003AD018 2019-02-19 18:55:14 20.9 26 18.2
003AD018 2019-02-19 18:24:25 20.9 26 18.5
003AD018 2019-02-19 17:53:37 21 27 18.8
003AD018 2019-02-19 17:22:52 21 27 18.9
003AD018 2019-02-19 16:52:04 21 27 19.1
003AD018 2019-02-19 16:21:18 21 27 19.4
003AD018 2019-02-19 15:50:27 20.9 27 19.7
003AD018 2019-02-19 15:19:45 21 26 19.8
003AD018 2019-02-19 14:48:54 21 27 19.9
003AD018 2019-02-19 14:18:11 20.9 27 20
003AD018 2019-02-19 13:47:20 20.9 27 20
003AD018 2019-02-19 13:16:35 20.9 26 20
003AD018 2019-02-19 12:45:46 20.9 26 20
003AD018 2019-02-19 12:14:59 20.9 26 20.1
003AD018 2019-02-19 11:44:13 20.9 26 20.1
003AD018 2019-02-19 11:13:23 20.8 26 18.2
003AD018 2019-02-19 10:42:35 20.8 26 18.6
003AD018 2019-02-19 10:11:48 20.8 26 18.7
003AD018 2019-02-19 09:41:00 20.7 25 18.7
003AD018 2019-02-19 09:10:11 20.7 25 18.9
003AD018 2019-02-19 08:39:23 20.7 25 18.8
003AD018 2019-02-19 08:08:31 20.7 24 18.9
003AD018 2019-02-19 07:37:44 20.7 24 19
003AD018 2019-02-19 07:06:56 20.7 24 19
003AD018 2019-02-19 06:36:08 20.7 24 19.1
003AD018 2019-02-19 06:05:19 20.7 24 19.1
003AD018 2019-02-19 05:34:31 20.7 24 19.2
003AD018 2019-02-19 05:03:43 20.7 24 18.8
003AD018 2019-02-19 04:32:54 20.7 24 18.7
003AD018 2019-02-19 04:02:08 20.7 24 18.4
003AD018 2019-02-19 03:31:20 20.7 23 20.2
003AD018 2019-02-19 03:00:34 20.7 23 19.9
003AD018 2019-02-19 02:29:48 20.7 23 19.9
003AD018 2019-02-19 01:58:59 20.7 23 19.9
003AD018 2019-02-19 01:28:11 20.7 23 19.9
003AD018 2019-02-19 00:57:22 20.7 23 20.4
003AD018 2019-02-19 00:26:33 20.9 23 20.6
003AD018 2019-02-19 00:25:21 20.7 23 20.8
003AD018 2019-02-18 23:54:33 20.7 23 21.1
003AD018 2019-02-18 23:23:43 20.7 22 21.6
003AD018 2019-02-18 22:52:54 20.7 22 21.7
003AD018 2019-02-18 22:22:06 20.7 22 21.7
003AD018 2019-02-18 21:51:14 20.8 22 21.8
003AD018 2019-02-18 21:20:28 20.8 22 22
003AD018 2019-02-18 20:49:36 20.8 22 22.1
003AD018 2019-02-18 20:18:46 20.8 22 22.2
003AD018 2019-02-18 19:47:55 20.8 22 22.3
003AD018 2019-02-18 19:17:07 20.8 22 22.4
003AD018 2019-02-18 18:46:18 20.8 21 22.5
003AD018 2019-02-18 18:15:29 20.8 21 22.4
003AD018 2019-02-18 17:44:41 20.9 21 22.5
003AD018 2019-02-18 17:13:52 20.9 21 22.5
003AD018 2019-02-18 16:43:04 20.9 21 22.6
003AD018 2019-02-18 16:12:13 20.9 21 22.8
003AD018 2019-02-18 15:41:24 21 21 22.9
003AD018 2019-02-18 15:10:37 21 21 22
003AD018 2019-02-18 14:39:50 21.1 20 22.1
003AD018 2019-02-18 13:38:15 21.2 20 22.2
003AD018 2019-02-18 13:07:28 21.3 19 22.3
003AD018 2019-02-18 12:36:44 21.4 19 22.4
003AD018 2019-02-18 12:05:53 21.4 19 22.3
003AD018 2019-02-18 11:35:07 21.3 19 22.4
003AD018 2019-02-18 11:04:19 21.3 19 22.4
003AD018 2019-02-18 10:33:32 21.2 19 22.4
003AD018 2019-02-18 10:02:46 21.1 19 22.3
003AD018 2019-02-18 09:32:00 21 19 22.3
003AD018 2019-02-18 09:01:13 21 19 22.4
003AD018 2019-02-18 08:30:26 20.9 18 22.4
003AD018 2019-02-18 07:59:39 20.8 18 22.4
003AD018 2019-02-18 07:28:52 20.7 18 22.4
003AD018 2019-02-18 06:58:05 20.7 18 22.5
003AD018 2019-02-18 06:27:20 20.7 18 22.6
003AD018 2019-02-18 05:56:34 20.7 18 22.6
003AD018 2019-02-18 05:25:48 20.7 18 22.8
003AD018 2019-02-18 04:55:02 20.6 18 22.9
003AD018 2019-02-18 04:24:16 20.6 18 22.9
003AD018 2019-02-18 03:53:29 20.7 18 23
003AD018 2019-02-18 03:22:43 20.7 18 23.2
003AD018 2019-02-18 02:51:56 20.7 18 23.2
003AD018 2019-02-18 02:21:10 20.7 18 23.3
003AD018 2019-02-18 01:50:23 20.8 18 23.5
003AD018 2019-02-18 01:19:36 20.8 18 23.4
003AD018 2019-02-18 00:48:48 20.7 19 23.5
003AD018 2019-02-18 00:17:59 20.8 19 23.5
003AD018 2019-02-17 23:47:13 20.8 19 23.6
003AD018 2019-02-17 23:16:27 21 19 23.6
003AD018 2019-02-17 23:15:15 20.8 19 23.6
003AD018 2019-02-17 22:44:28 20.8 19 23.6
003AD018 2019-02-17 22:13:41 20.8 19 23.5
003AD018 2019-02-17 21:42:54 20.8 19 23.4
003AD018 2019-02-17 21:12:08 20.8 19 23.5
003AD018 2019-02-17 20:41:21 20.8 19 23.3
003AD018 2019-02-17 20:10:35 20.8 19 23.4
003AD018 2019-02-17 19:39:50 20.8 19 23.3
003AD018 2019-02-17 19:09:05 20.9 19 23.3
003AD018 2019-02-17 18:38:20 20.8 19 23.3
003AD018 2019-02-17 18:07:34 20.9 19 23.3
003AD018 2019-02-17 17:36:50 20.9 19 23.3
003AD018 2019-02-17 17:06:05 20.9 19 23.3
003AD018 2019-02-17 16:35:20 20.9 19 23.3
003AD018 2019-02-17 16:04:38 20.9 19 23.4
003AD018 2019-02-17 15:33:56 20.9 20 23.4
003AD018 2019-02-17 15:03:12 21 20 23.2
003AD018 2019-02-17 14:32:28 21 20 23.1
003AD018 2019-02-17 14:01:43 21 20 23.1
003AD018 2019-02-17 13:30:59 21 20 23.1
003AD018 2019-02-17 13:00:14 21 20 23.2
003AD018 2019-02-17 12:29:31 20.9 20 23.2
003AD018 2019-02-17 11:58:45 20.9 20 23.2
003AD018 2019-02-17 11:28:02 20.9 20 23.1
003AD018 2019-02-17 10:57:18 20.9 20 23.2
003AD018 2019-02-17 10:26:33 20.9 20 23.2
003AD018 2019-02-17 09:55:49 20.8 20 23.2
003AD018 2019-02-17 09:25:04 20.8 21 23.3
003AD018 2019-02-17 08:54:19 20.8 21 23.2
003AD018 2019-02-17 08:23:35 20.9 21 23.2
003AD018 2019-02-17 07:52:50 20.9 21 23.3
003AD018 2019-02-17 07:22:06 20.9 21 23.3
003AD018 2019-02-17 06:51:21 20.9 21 23.4
003AD018 2019-02-17 06:20:38 20.9 21 23.3
003AD018 2019-02-17 05:49:53 20.9 22 23.4
003AD018 2019-02-17 05:19:09 20.9 22 23.3
003AD018 2019-02-17 04:48:25 20.9 22 23.3
003AD018 2019-02-17 04:17:40 20.9 22 23.2
003AD018 2019-02-17 03:46:55 20.9 22 23.2
003AD018 2019-02-17 03:16:11 20.9 23 23.1
003AD018 2019-02-17 02:45:26 20.9 23 23.1
003AD018 2019-02-17 02:14:41 20.9 23 23.1
003AD018 2019-02-17 01:43:57 20.9 23 23.1
003AD018 2019-02-17 01:13:11 20.9 23 23
003AD018 2019-02-17 00:42:26 20.9 24 23
003AD018 2019-02-17 00:11:41 20.9 24 23
003AD018 2019-02-16 23:40:55 20.9 24 23
003AD018 2019-02-16 23:10:08 21 24 23.1
003AD018 2019-02-16 22:39:23 21 24 23.1
003AD018 2019-02-16 22:08:37 21.2 24 22.9
003AD018 2019-02-16 22:07:25 21 24 23.5
003AD018 2019-02-16 21:36:41 21 24 23.5
003AD018 2019-02-16 21:05:56 21 24 23.5
003AD018 2019-02-16 20:35:10 21 24 23.5
003AD018 2019-02-16 20:04:24 21 25 23.5
003AD018 2019-02-16 19:33:40 21 25 23.5
003AD018 2019-02-16 19:02:55 21 25 23.5
003AD018 2019-02-16 18:32:10 21 25 23.4
003AD018 2019-02-16 18:01:25 21.1 25 23.4
003AD018 2019-02-16 17:30:41 21.1 25 23.4
003AD018 2019-02-16 16:59:57 21.2 25 23.4
003AD018 2019-02-16 16:29:12 21.2 25 23.4
003AD018 2019-02-16 15:58:26 21.2 25 23.5
003AD018 2019-02-16 15:27:41 21.2 25 23.4
003AD018 2019-02-16 14:56:53 21.2 25 23.3
003AD018 2019-02-16 14:26:07 21.2 25 23.3
003AD018 2019-02-16 13:55:20 21.1 24 23.4
003AD018 2019-02-16 13:24:33 21.1 24 23.3
003AD018 2019-02-16 12:53:47 21.1 25 23.4
003AD018 2019-02-16 12:23:01 21.1 25 23.4
003AD018 2019-02-16 11:52:14 21 25 23.4
003AD018 2019-02-16 11:21:27 21 25 23.3
003AD018 2019-02-16 10:50:41 20.9 25 23.3
003AD018 2019-02-16 10:19:55 20.9 25 23.3
003AD018 2019-02-16 09:49:10 20.9 25 23.2
003AD018 2019-02-16 09:18:23 20.9 25 23.2
003AD018 2019-02-16 08:47:36 20.9 25 23.3
003AD018 2019-02-16 08:16:50 20.9 25 23.4
003AD018 2019-02-16 07:46:05 20.9 25 23.4
003AD018 2019-02-16 07:15:20 20.9 25 23.4
003AD018 2019-02-16 06:44:33 20.9 25 23.4
003AD018 2019-02-16 06:13:48 20.9 25 23.5
003AD018 2019-02-16 05:43:04 20.9 25 23.7
003AD018 2019-02-16 05:12:19 20.9 25 23.7
003AD018 2019-02-16 04:41:36 20.9 25 24.3
003AD018 2019-02-16 04:10:50 20.9 25 24.4
003AD018 2019-02-16 03:40:06 20.9 25 24.3
003AD018 2019-02-16 03:09:21 20.9 25 24.3
003AD018 2019-02-16 02:38:37 20.9 25 24.4
003AD018 2019-02-16 02:07:52 21 25 24.4
003AD018 2019-02-16 01:37:06 21 25 24.4
003AD018 2019-02-16 01:06:19 21 25 24.4
003AD018 2019-02-16 00:35:34 21 25 24.4
003AD018 2019-02-16 00:04:47 21 25 24.4
003AD018 2019-02-15 23:33:59 21.1 25 24.3
003AD018 2019-02-15 23:03:12 21.1 25 24.3
003AD018 2019-02-15 22:32:25 21.2 25 24.3
003AD018 2019-02-15 22:01:38 21.3 25 24.4
003AD018 2019-02-15 21:30:51 21.3 25 24.4
003AD018 2019-02-15 21:00:03 21.6 25 24.3
003AD018 2019-02-15 20:58:52 21.4 25 23.7
003AD018 2019-02-15 20:28:05 21.4 25 23.6
003AD018 2019-02-15 19:57:19 21.5 25 23.5
003AD018 2019-02-15 19:26:35 21.6 24 23.5
003AD018 2019-02-15 18:55:49 21.7 24 23.5
003AD018 2019-02-15 18:25:04 21.7 24 23.5
003AD018 2019-02-15 17:54:19 21.7 24 23.4
003AD018 2019-02-15 17:23:34 21.7 24 23.2
003AD018 2019-02-15 16:52:48 21.7 24 23.3
003AD018 2019-02-15 16:22:03 21.6 24 22.6
003AD018 2019-02-15 15:51:18 21.7 23 22.4
003AD018 2019-02-15 15:20:34 21.7 23 22.5
003AD018 2019-02-15 14:49:48 21.7 23 22.5
003AD018 2019-02-15 14:19:04 21.6 23 22.4
003AD018 2019-02-15 13:48:21 21.6 23 22.4
003AD018 2019-02-15 13:17:37 21.6 23 23.2
003AD018 2019-02-15 12:46:52 21.6 23 23.2
003AD018 2019-02-15 12:16:07 21.5 24 23.2
003AD018 2019-02-15 11:45:22 21.5 24 23.3
003AD018 2019-02-15 11:14:36 21.5 24 23.2
003AD018 2019-02-15 10:43:50 21.4 24 23.2
003AD018 2019-02-15 10:13:04 21.4 24 23.3
003AD018 2019-02-15 09:42:20 21.3 24 23.3
003AD018 2019-02-15 09:11:35 21.3 25 23.4
003AD018 2019-02-15 08:40:51 21.2 25 23.4
003AD018 2019-02-15 08:10:08 21.2 25 23.5
003AD018 2019-02-15 07:39:23 21.1 25 23.6
003AD018 2019-02-15 07:08:38 21.1 25 23.6
003AD018 2019-02-15 06:37:54 21.2 25 23.6
003AD018 2019-02-15 06:07:09 21.2 25 23.6
003AD018 2019-02-15 05:36:24 21.1 25 23.5
003AD018 2019-02-15 05:05:39 21.1 25 23.5
003AD018 2019-02-15 04:34:54 21.1 25 23.5
003AD018 2019-02-15 04:04:09 21.1 25 23.4
003AD018 2019-02-15 03:33:24 21.1 25 23.3
003AD018 2019-02-15 03:02:39 21.1 25 23.2
003AD018 2019-02-15 02:31:53 21.2 25 23.1
003AD018 2019-02-15 02:01:06 21.1 25 23
003AD018 2019-02-15 01:30:19 21.2 25 23
003AD018 2019-02-15 00:59:33 21.2 25 23
003AD018 2019-02-15 00:28:47 21.2 25 22.1
003AD018 2019-02-14 23:57:59 21.2 25 21.9
003AD018 2019-02-14 23:27:12 21.2 25 21.7
003AD018 2019-02-14 22:56:28 21.3 25 21.6
003AD018 2019-02-14 22:25:41 21.3 25 21.6
003AD018 2019-02-14 21:54:55 21.3 25 21.5
003AD018 2019-02-14 21:24:08 21.4 24 21.4
003AD018 2019-02-14 20:53:20 21.4 24 21
003AD018 2019-02-14 20:22:33 21.6 24 20.8
003AD018 2019-02-14 19:51:47 21.9 23 20.6
003AD018 2019-02-14 19:50:35 21.7 24 20.3
003AD018 2019-02-14 19:19:50 21.8 24 20.1
003AD018 2019-02-14 18:49:03 21.8 24 20.1
003AD018 2019-02-14 18:18:16 21.8 24 19.9
003AD018 2019-02-14 17:47:31 21.9 23 19.9
003AD018 2019-02-14 17:16:47 21.9 23 19.7
003AD018 2019-02-14 16:46:04 22 23 19.4
003AD018 2019-02-14 16:15:19 22 23 19.2
003AD018 2019-02-14 15:44:34 22 23 19.2
003AD018 2019-02-14 15:13:53 21.9 23 19.4
003AD018 2019-02-14 14:43:04 21.8 23 19.3
003AD018 2019-02-14 14:12:20 21.7 23 19.5
003AD018 2019-02-14 13:41:33 21.6 23 19.5
003AD018 2019-02-14 13:10:46 21.5 23 19.3
003AD018 2019-02-14 12:40:04 21.4 23 19
003AD018 2019-02-14 12:09:18 21.3 23 19.2
003AD018 2019-02-14 11:38:33 21.3 23 19.1
003AD018 2019-02-14 11:07:48 21.3 24 19.3
003AD018 2019-02-14 10:37:02 21 24 19.1
003AD018 2019-02-14 10:06:15 20.9 23 18.9
003AD018 2019-02-14 09:35:31 20.9 23 18.7
003AD018 2019-02-14 09:04:44 20.8 23 18.5
003AD018 2019-02-14 08:33:57 20.7 23 20.4
003AD018 2019-02-14 08:03:13 20.7 24 20.4
003AD018 2019-02-14 07:32:29 20.8 25 20.5
003AD018 2019-02-14 07:01:45 20.8 25 20.6
003AD018 2019-02-14 06:31:01 20.8 25 20.4
003AD018 2019-02-14 06:00:16 20.8 25 20.3
003AD018 2019-02-14 05:29:31 20.8 25 20.4
003AD018 2019-02-14 04:58:44 20.8 25 20.3
003AD018 2019-02-14 04:27:58 20.8 25 20.2
003AD018 2019-02-14 03:57:13 20.8 25 20
003AD018 2019-02-14 03:26:28 20.8 25 20.2
003AD018 2019-02-14 02:55:44 20.8 25 20.3
003AD018 2019-02-14 02:25:00 20.8 25 20.3
003AD018 2019-02-14 01:54:15 20.8 24 20.4
003AD018 2019-02-14 01:23:31 20.8 24 20.1
003AD018 2019-02-14 00:52:47 20.8 24 20.4
003AD018 2019-02-14 00:22:02 20.8 24 20.2
003AD018 2019-02-13 23:51:18 20.9 24 20.1
003AD018 2019-02-13 23:20:33 20.9 24 20.2
003AD018 2019-02-13 22:49:50 20.9 24 20.2
003AD018 2019-02-13 22:19:04 21 24 20.2
003AD018 2019-02-13 21:48:19 21 24 20.2
003AD018 2019-02-13 21:17:36 21.1 24 20.2
003AD018 2019-02-13 20:46:52 21.1 24 20.5
003AD018 2019-02-13 20:16:06 21.2 24 20.7
003AD018 2019-02-13 19:45:21 21.2 25 19.2
003AD018 2019-02-13 19:14:35 21.3 25 19.3
003AD018 2019-02-13 18:43:51 21.6 25 19.3
003AD018 2019-02-13 18:42:39 21.3 25 19.4
003AD018 2019-02-13 18:11:55 21.4 26 19.6
003AD018 2019-02-13 17:41:11 21.4 26 19.6
003AD018 2019-02-13 17:10:25 21.4 26 19.4
003AD018 2019-02-13 16:39:40 21.3 26 19.7
003AD018 2019-02-13 16:08:53 21.3 26 20
003AD018 2019-02-13 15:38:08 21.2 25 20.4
003AD018 2019-02-13 15:07:23 21.2 25 20.3
003AD018 2019-02-13 14:36:36 21.1 24 20.5
003AD018 2019-02-13 14:05:53 21.1 24 20.5
003AD018 2019-02-13 13:35:05 21.1 24 20.4
003AD018 2019-02-13 13:04:18 21.1 24 20.6
003AD018 2019-02-13 12:33:33 21.1 24 20.5
003AD018 2019-02-13 12:02:48 21.1 24 20.6
003AD018 2019-02-13 11:32:02 21 24 20.9
003AD018 2019-02-13 11:01:16 20.9 24 20.8
003AD018 2019-02-13 10:30:28 20.8 23 21
003AD018 2019-02-13 09:59:40 20.8 22 21.1
003AD018 2019-02-13 09:28:55 20.8 22 21.2
003AD018 2019-02-13 08:58:10 20.7 21 21.2
003AD018 2019-02-13 08:27:25 20.7 20 21
003AD018 2019-02-13 07:56:39 20.7 20 20.9
003AD018 2019-02-13 07:25:53 20.7 18 20.7
003AD018 2019-02-13 06:55:07 20.7 18 20.7
003AD018 2019-02-13 06:24:22 20.7 18 20.7
003AD018 2019-02-13 05:53:36 20.8 18 20.6
003AD018 2019-02-13 05:22:52 20.7 18 20.4
003AD018 2019-02-13 04:52:03 20.8 18 20.4
003AD018 2019-02-13 04:21:19 20.8 18 20.5
003AD018 2019-02-13 03:50:30 20.8 18 20.3
003AD018 2019-02-13 03:19:43 20.8 18 20.1
003AD018 2019-02-13 02:48:57 20.8 18 19.7
003AD018 2019-02-13 02:18:11 20.8 18 19.5
003AD018 2019-02-13 01:47:24 20.8 18 19.6
003AD018 2019-02-13 01:16:38 20.8 18 20.9
003AD018 2019-02-13 00:45:52 20.9 18 21
003AD018 2019-02-13 00:15:05 20.9 19 20.8
003AD018 2019-02-12 23:44:18 20.9 19 20.7
003AD018 2019-02-12 23:13:32 20.9 18 20.6
003AD018 2019-02-12 22:42:45 21 18 20.7
003AD018 2019-02-12 22:11:59 21 19 20.6
003AD018 2019-02-12 21:41:15 21.1 19 20.5
003AD018 2019-02-12 21:10:32 21.2 20 20.2
003AD018 2019-02-12 20:39:48 21.3 20 20.2
003AD018 2019-02-12 20:09:04 21.4 20 20.1
003AD018 2019-02-12 19:38:18 21.5 20 20.1
003AD018 2019-02-12 19:07:33 21.5 19 20
003AD018 2019-02-12 18:36:49 21.6 19 20.1
003AD018 2019-02-12 18:06:04 21.6 18 20
003AD018 2019-02-12 17:35:19 21.9 18 20
003AD018 2019-02-12 17:34:07 21.7 18 20
003AD018 2019-02-12 17:03:23 21.8 18 20
003AD018 2019-02-12 16:32:39 22 18 20.1
003AD018 2019-02-12 16:01:53 22.1 18 19.8
003AD018 2019-02-12 15:31:08 22.1 18 19.9
003AD018 2019-02-12 15:00:22 22 18 19.9
003AD018 2019-02-12 14:29:37 21.8 18 20.1
003AD018 2019-02-12 13:58:55 21.3 19 20.1
003AD018 2019-02-12 13:28:07 21.3 19 19.8
003AD018 2019-02-12 12:57:20 21.3 19 17.5
003AD018 2019-02-12 12:26:34 21.3 19 17.6
003AD018 2019-02-12 11:55:50 21.2 19 17.6
003AD018 2019-02-12 11:25:05 21.2 20 17.8
003AD018 2019-02-12 10:54:19 21.2 20 17.9
003AD018 2019-02-12 10:23:35 21.1 21 17.2
003AD018 2019-02-12 09:52:52 21 21 17.2
003AD018 2019-02-12 09:22:08 21 22 17
003AD018 2019-02-12 08:51:22 20.9 22 17.2
003AD018 2019-02-12 08:20:36 20.8 23 17.2
003AD018 2019-02-12 07:49:50 20.8 24 17.3
003AD018 2019-02-12 07:19:03 20.8 25 17.5
003AD018 2019-02-12 06:48:16 20.8 25 17.1
003AD018 2019-02-12 06:17:32 20.8 25 17.6
003AD018 2019-02-12 05:46:44 20.8 26 17.8
003AD018 2019-02-12 05:16:00 20.8 26 17.6
003AD018 2019-02-12 04:45:12 20.8 26 17.6
003AD018 2019-02-12 04:14:25 20.9 26 17.7
003AD018 2019-02-12 03:43:38 20.9 26 17.6
003AD018 2019-02-12 03:12:52 20.9 26 17.7
003AD018 2019-02-12 02:42:05 20.9 26 17.8
003AD018 2019-02-12 02:11:18 20.9 26 17.7
003AD018 2019-02-12 01:40:33 20.9 26 17.6
003AD018 2019-02-12 01:09:44 20.9 26 17.8
003AD018 2019-02-12 00:38:58 21 26 17.8
003AD018 2019-02-12 00:08:13 21 26 18
003AD018 2019-02-11 23:37:26 21 26 17.7
003AD018 2019-02-11 23:06:40 21.1 26 17.9
003AD018 2019-02-11 22:35:53 21.1 26 17.8
003AD018 2019-02-11 22:05:06 21.2 26 17.9
003AD018 2019-02-11 21:34:19 21.2 26 18
003AD018 2019-02-11 21:03:30 21.3 26 18.3
003AD018 2019-02-11 20:32:43 21.4 26 18.5
003AD018 2019-02-11 20:01:55 21.4 26 18.4
003AD018 2019-02-11 19:31:09 21.6 26 18.8
003AD018 2019-02-11 19:00:21 21.7 26 18.9
003AD018 2019-02-11 18:29:36 21.8 26 18.9
003AD018 2019-02-11 17:58:46 22 27 20
003AD018 2019-02-11 17:27:59 22.1 27 18
003AD018 2019-02-11 16:57:13 22.2 27 12.6
003AD018 2019-02-11 16:26:28 22 30 0